[[{"header":{"parameterUnit":"m.s-1","parameterCategory":1,"la1":30.2991,"la2":30.254,"lo1":-89.0895,"lo2":-89.0444,"dy":0.0017,"dx":0.0017,"nx":28,"ny":28,"refTime":"2025-01-06T03:00:00:Z","depth":0,"parameterNumber":2,"parameterNumberName":"U-component_of_WINDS"},"data":[0,0,0,0,0,0,0,0,0,0,0,0,0,0,0,0,0,0,0,0,0,0,0,0,0,0,0,0,0,0,0,0,0,0,0,0,0,0,0,0,0,0,0,0,0,0,0,0,0,0,0,0,0,0,0,0,0,0,2.1619,2.1619,0,2.1622,2.1622,2.1622,2.1593,2.1592,2.1591,2.159,2.1594,2.1595,2.1596,0,0,0,0,0,0,0,0,0,0,0,0,0,2.1589,2.1589,2.1619,2.1619,2.1619,2.1622,2.1622,2.1622,2.1593,2.1592,2.1591,2.159,2.1594,2.1595,2.1596,0,0,0,0,0,0,0,0,0,0,0,0,0,2.1598,2.159,2.1619,2.1605,2.1604,2.1622,2.1622,2.1623,2.1593,2.1592,2.1591,2.1589,2.1593,2.1594,2.1596,2.1628,0,0,2.16,2.16,0,0,0,0,0,0,0,0,2.1597,2.1599,2.1607,2.1606,2.1605,2.1606,2.1613,2.1625,2.1593,2.1597,2.159,2.1589,2.1599,2.16,2.1603,2.1629,2.1629,2.16,2.1601,2.1601,2.1601,0,0,0,0,0,0,0,2.1597,2.1599,2.162,2.1607,2.1606,2.1599,2.1599,2.1615,2.1605,2.1597,2.1595,2.1595,2.1598,2.1602,2.1603,2.1629,2.16,2.1601,2.1602,2.1602,2.1683,2.1684,0,0,0,0,0,0,2.1598,2.1598,2.162,2.1621,2.1598,2.16,2.16,2.1607,2.1605,2.1603,2.1596,2.1594,2.16,2.1601,2.1603,2.1641,2.1601,2.1602,2.1603,2.1681,2.1683,2.1685,0,0,0,0,0,0,2.1597,2.16,2.162,2.1609,2.1611,2.1602,2.161,2.1607,2.1611,2.1604,2.1602,2.1602,2.1599,2.1601,2.1623,2.1641,2.1603,2.1604,2.168,2.1682,2.1684,2.1718,0,0,0,0,0,0,2.1597,2.16,2.1612,2.1609,2.1612,2.1639,2.1611,2.1608,2.1613,2.161,2.1609,2.1608,2.1598,2.1621,2.1624,2.1642,2.1605,2.1678,2.1681,2.1683,2.1715,2.1721,2.1726,0,0,0,0,0,2.1596,2.1621,2.1613,2.1616,2.1626,2.1641,2.1642,2.163,2.1615,2.1627,2.1623,2.1608,2.1639,2.1623,2.1626,2.1645,2.1677,2.168,2.1683,2.1713,2.172,2.1726,0,0,0,0,0,0,2.1626,2.1621,2.1611,2.1637,2.1639,2.1635,2.165,2.1638,2.1645,2.1642,2.1628,2.1628,2.1652,2.1651,2.1634,2.1678,2.1655,2.1659,2.1677,2.1684,2.1689,2.1688,2.1606,0,0,0,0,0,2.1636,2.1648,2.1642,2.1666,2.1667,2.1659,2.1665,2.1656,2.1658,2.1659,2.1656,2.1659,2.167,2.1677,2.1686,2.1716,2.1715,2.1731,2.1736,2.174,2.1744,2.176,2.1767,2.1695,2.1695,2.1695,0,0,2.1656,2.1654,2.1662,2.1672,2.1673,2.1686,2.166,2.1674,2.1684,2.1661,2.1681,2.168,2.1682,2.1708,2.172,2.1708,2.1764,2.1744,2.1748,2.1749,2.1764,2.1771,2.1777,2.1697,2.1696,2.1696,0,0,2.1698,2.1699,2.1718,2.172,2.1722,2.1717,2.1722,2.172,2.1718,2.1739,2.1722,2.1734,2.1752,2.1754,2.1758,2.1805,2.1791,2.1808,2.1836,2.1852,2.1858,2.1863,2.1879,2.1885,2.1812,2.1812,2.1812,0,2.1723,2.1741,2.173,2.1746,2.175,2.1731,2.1751,2.1754,2.1759,2.1763,2.1751,2.1774,2.1774,2.1801,2.1812,2.1816,2.1821,2.1807,2.1858,2.1863,2.1867,2.1883,2.1889,2.1814,2.1814,2.1813,2.1813,0,2.1771,2.1785,2.18,2.1806,2.1813,2.1831,2.1823,2.1831,2.1823,2.1819,2.184,2.184,2.1849,2.1856,2.1847,2.1881,2.1874,2.186,2.1837,2.1876,2.1891,2.1897,2.1817,2.1816,2.1815,2.1815,0,0,2.1831,2.1832,2.1837,2.184,2.1843,2.1853,2.1871,2.188,2.1888,2.1893,2.1907,2.1924,2.1912,2.1916,2.1908,2.1922,2.196,2.1907,2.1906,2.1916,2.1998,2.2008,2.2015,2.1951,2.1952,2.1953,2.1998,0,2.1872,2.1902,2.1893,2.1924,2.1936,2.1919,2.1935,2.1939,2.1936,2.1947,2.1944,2.1956,2.1939,2.1941,2.1955,2.1952,2.1976,2.1949,2.1965,2.1965,2.1964,2.2023,2.2033,2.2075,2.2003,2.2004,2.2005,0,2.1924,2.1932,2.1963,2.1964,2.1969,2.1984,2.1992,2.2003,2.2007,2.2004,2.201,2.2,2.2018,2.1996,2.2021,2.2004,2.201,2.201,2.2011,2.2011,2.1987,2.2024,2.2088,2.2094,2.2014,2.2013,2.2012,0,2.1964,2.1982,2.2004,2.2007,2.2009,2.2019,2.2021,2.2024,2.2031,2.2038,2.2043,2.2053,2.2058,2.2067,2.2059,2.2044,2.2086,2.2063,2.2084,2.2084,2.2093,2.2092,2.2158,2.2098,2.2098,2.2098,2.2098,0,2.2011,2.2031,2.2022,2.2035,2.2057,2.2048,2.207,2.207,2.2073,2.2086,2.2073,2.2086,2.2076,2.2088,2.2083,2.2105,2.2107,2.2106,2.2104,2.2107,2.2107,2.211,2.2106,2.21,2.2099,2.2099,2.2099,0,2.2058,2.2053,2.2076,2.2076,2.2077,2.2094,2.2094,2.2107,2.2104,2.2121,2.2125,2.2121,2.2135,2.2129,2.2143,2.214,2.2168,2.2163,2.2166,2.2165,2.2186,2.2184,2.2255,2.2264,2.2199,2.22,2.2201,0,2.2088,2.2103,2.2106,2.2114,2.2116,2.2129,2.2136,2.2128,2.2136,2.2143,2.2155,2.2168,2.2178,2.2201,2.2199,2.2211,2.2205,2.2229,2.2206,2.2209,2.2205,2.2204,2.2205,2.2233,2.2234,2.2235,2.2235,0,2.2141,2.2138,2.2148,2.2159,2.2168,2.2176,2.2182,2.219,2.2182,2.2192,2.2206,2.2214,2.223,2.2243,2.2253,2.2255,2.2244,2.2243,2.2248,2.225,2.2252,2.2251,2.2178,2.2241,2.224,2.224,2.224,2.2239,2.218,2.2193,2.2197,2.221,2.2214,2.2221,2.2233,2.2233,2.2245,2.2256,2.2251,2.2268,2.2273,2.2286,2.229,2.2303,2.2294,2.2302,2.2303,2.2305,2.2308,2.2251,2.2305,2.2305,2.2305,2.2305,2.2305,0,2.2231,2.2234,2.2246,2.2256,2.2267,2.2256,2.2264,2.2273,2.2288,2.2294,2.2304,2.2321,2.2334,2.2335,2.2347,2.2357,2.2353,2.2361,2.2359,2.236,2.2316,2.231,2.2364,2.2364,2.2364,2.2364,2.2364,2.2364,2.2259,2.2281,2.2279,2.2303,2.2306,2.2322,2.2327,2.2334,2.2339,2.2358,2.2369,2.237,2.2374,2.2387,2.2399,2.2398,2.2403,2.2413,2.2411,2.2369,2.2363,2.2358,2.2352,2.2415,2.2415,2.2454,2.2455,2.2455]},{"header":{"parameterUnit":"m.s-1","parameterCategory":1,"la1":30.2991,"la2":30.254,"lo1":-89.0895,"lo2":-89.0444,"dy":0.0017,"dx":0.0017,"nx":28,"ny":28,"refTime":"2025-01-06T03:00:00:Z","depth":0,"parameterNumber":3,"parameterNumberName":"V-component_of_WINDS"},"data":[0,0,0,0,0,0,0,0,0,0,0,0,0,0,0,0,0,0,0,0,0,0,0,0,0,0,0,0,0,0,0,0,0,0,0,0,0,0,0,0,0,0,0,0,0,0,0,0,0,0,0,0,0,0,0,0,0,0,-8.0701,-8.0703,0,-8.0943,-8.0946,-8.0949,-8.0884,-8.0879,-8.0874,-8.087,-8.1113,-8.1124,-8.1135,0,0,0,0,0,0,0,0,0,0,0,0,0,-8.0177,-8.0187,-8.07,-8.0704,-8.0707,-8.0943,-8.0946,-8.095,-8.0885,-8.0879,-8.0873,-8.0867,-8.111,-8.1123,-8.1136,0,0,0,0,0,0,0,0,0,0,0,0,0,-8.041,-8.019,-8.07,-8.0703,-8.0705,-8.0942,-8.0946,-8.095,-8.0886,-8.0879,-8.0871,-8.0865,-8.1105,-8.1121,-8.1138,-8.1385,0,0,-8.1188,-8.1195,0,0,0,0,0,0,0,0,-8.0397,-8.0429,-8.0699,-8.0703,-8.0706,-8.0876,-8.0851,-8.1096,-8.0888,-8.0817,-8.0869,-8.0861,-8.104,-8.1061,-8.1123,-8.1396,-8.1407,-8.119,-8.12,-8.1207,-8.1211,0,0,0,0,0,0,0,-8.0381,-8.0419,-8.0796,-8.0703,-8.0708,-8.0691,-8.0716,-8.0897,-8.0966,-8.0823,-8.0819,-8.0849,-8.104,-8.1107,-8.1128,-8.141,-8.1189,-8.1204,-8.1214,-8.122,-8.1899,-8.1907,0,0,0,0,0,0,-8.0363,-8.0406,-8.0789,-8.0804,-8.0531,-8.0706,-8.0734,-8.0829,-8.0964,-8.0978,-8.0855,-8.0845,-8.1082,-8.1109,-8.1136,-8.1435,-8.1206,-8.1222,-8.1231,-8.1891,-8.1901,-8.191,0,0,0,0,0,0,-8.0352,-8.0397,-8.0779,-8.0604,-8.0651,-8.0723,-8.083,-8.0837,-8.0904,-8.0988,-8.1,-8.091,-8.1078,-8.1113,-8.1324,-8.1443,-8.1229,-8.1244,-8.1882,-8.1894,-8.1906,-8.2035,0,0,0,0,0,0,-8.0337,-8.0394,-8.049,-8.0606,-8.0661,-8.0965,-8.0837,-8.0847,-8.0933,-8.0923,-8.1043,-8.1056,-8.1075,-8.13,-8.1341,-8.1462,-8.1257,-8.1871,-8.1887,-8.1902,-8.2021,-8.205,-8.2076,0,0,0,0,0,-8.0318,-8.0515,-8.0495,-8.0541,-8.0782,-8.0972,-8.1002,-8.1021,-8.0943,-8.1039,-8.1093,-8.1052,-8.1423,-8.1322,-8.1367,-8.1495,-8.1864,-8.1883,-8.1901,-8.2008,-8.2045,-8.2075,0,0,0,0,0,0,-8.0409,-8.0531,-8.0509,-8.075,-8.0851,-8.096,-8.1082,-8.1058,-8.1183,-8.1167,-8.1183,-8.1211,-8.1427,-8.1482,-8.1367,-8.1742,-8.1632,-8.166,-8.1698,-8.1733,-8.176,-8.1743,-8.1271,0,0,0,0,0,-8.0457,-8.0602,-8.07,-8.0903,-8.0955,-8.101,-8.1093,-8.1099,-8.1204,-8.1246,-8.1315,-8.1417,-8.1556,-8.1647,-8.178,-8.2028,-8.2053,-8.2138,-8.2165,-8.2188,-8.2212,-8.2347,-8.2386,-8.197,-8.197,-8.197,0,0,-8.0558,-8.0642,-8.0733,-8.0924,-8.1003,-8.1151,-8.1047,-8.1208,-8.1319,-8.127,-8.1474,-8.1529,-8.1643,-8.1874,-8.1979,-8.1926,-8.2333,-8.2211,-8.2228,-8.2241,-8.237,-8.2409,-8.2444,-8.1982,-8.198,-8.1978,0,0,-8.0818,-8.0896,-8.1075,-8.1156,-8.1278,-8.1313,-8.1356,-8.147,-8.1504,-8.171,-8.1677,-8.1807,-8.2046,-8.213,-8.2203,-8.2496,-8.2463,-8.2538,-8.2682,-8.2814,-8.2847,-8.2876,-8.298,-8.3018,-8.2562,-8.2562,-8.2562,0,-8.0927,-8.1152,-8.1169,-8.1335,-8.1419,-8.1383,-8.1563,-8.1641,-8.1799,-8.1858,-8.1797,-8.2098,-8.2172,-8.2422,-8.2494,-8.2554,-8.2603,-8.2525,-8.2841,-8.287,-8.2898,-8.2997,-8.3037,-8.2571,-8.257,-8.2569,-8.2568,0,-8.1281,-8.1437,-8.1566,-8.1722,-8.1821,-8.1993,-8.2035,-8.2133,-8.213,-8.2171,-8.2381,-8.2469,-8.2619,-8.2678,-8.2676,-8.2929,-8.2892,-8.2836,-8.2726,-8.2945,-8.304,-8.3078,-8.2583,-8.258,-8.2577,-8.2575,0,0,-8.1605,-8.1769,-8.1816,-8.1886,-8.2018,-8.2138,-8.2308,-8.2457,-8.2541,-8.265,-8.2793,-8.2997,-8.2946,-8.303,-8.3036,-8.3152,-8.3378,-8.3082,-8.3084,-8.3134,-8.3662,-8.3704,-8.3748,-8.3357,-8.3364,-8.337,-8.3652,0,-8.1877,-8.2178,-8.2199,-8.247,-8.2615,-8.2582,-8.273,-8.2826,-8.287,-8.2997,-8.3043,-8.3188,-8.311,-8.316,-8.3273,-8.3327,-8.3484,-8.3307,-8.3489,-8.3495,-8.3462,-8.3797,-8.3843,-8.4105,-8.3689,-8.3696,-8.37,0,-8.2235,-8.2358,-8.2645,-8.2757,-8.2818,-8.2951,-8.3089,-8.3212,-8.3319,-8.3342,-8.3437,-8.3427,-8.36,-8.3484,-8.3722,-8.3601,-8.3676,-8.3714,-8.3724,-8.3742,-8.3611,-8.3825,-8.4189,-8.4229,-8.3758,-8.3753,-8.3749,0,-8.2444,-8.2681,-8.2883,-8.2944,-8.308,-8.3174,-8.3234,-8.3335,-8.3423,-8.3543,-8.36,-8.3738,-8.3814,-8.392,-8.3948,-8.3861,-8.4186,-8.4072,-8.4209,-8.4209,-8.428,-8.4275,-8.4662,-8.4328,-8.4327,-8.4326,-8.4325,0,-8.2746,-8.2923,-8.2979,-8.3104,-8.3301,-8.3321,-8.3515,-8.3569,-8.3659,-8.3793,-8.3772,-8.3898,-8.3926,-8.4057,-8.4079,-8.4273,-8.4307,-8.433,-8.4334,-8.4333,-8.433,-8.4383,-8.4366,-8.4337,-8.4334,-8.4332,-8.433,0,-8.3013,-8.3058,-8.3276,-8.3387,-8.3419,-8.3559,-8.3653,-8.3772,-8.3812,-8.3982,-8.4022,-8.4086,-8.4239,-8.4277,-8.4458,-8.4473,-8.4703,-8.4689,-8.4667,-8.4667,-8.4803,-8.479,-8.5237,-8.5297,-8.4923,-8.4926,-8.4929,0,-8.3203,-8.3339,-8.3465,-8.3554,-8.3619,-8.3762,-8.3852,-8.3877,-8.3972,-8.4106,-8.4209,-8.4359,-8.4481,-8.4727,-8.4788,-8.4927,-8.4916,-8.5064,-8.4937,-8.4931,-8.4919,-8.4911,-8.4925,-8.5088,-8.5092,-8.5095,-8.5098,0,-8.3537,-8.3552,-8.3685,-8.3826,-8.3934,-8.4046,-8.4152,-8.4226,-8.4265,-8.4373,-8.453,-8.4625,-8.4811,-8.4961,-8.5101,-8.5161,-8.5137,-8.5137,-8.5176,-8.5177,-8.5159,-8.5171,-8.4734,-8.5127,-8.5124,-8.5122,-8.512,-8.5119,-8.3772,-8.3891,-8.3999,-8.4147,-8.423,-8.433,-8.4448,-8.4503,-8.4635,-8.4791,-8.4797,-8.4968,-8.5071,-8.5257,-8.5325,-8.5458,-8.5413,-8.547,-8.5485,-8.5499,-8.5511,-8.5138,-8.5484,-8.5483,-8.5482,-8.5481,-8.5481,0,-8.4105,-8.4173,-8.4309,-8.4459,-8.4576,-8.4543,-8.466,-8.4759,-8.491,-8.501,-8.5131,-8.5311,-8.5456,-8.5529,-8.5673,-8.5765,-8.5758,-8.5802,-8.5796,-8.581,-8.5543,-8.5495,-8.5806,-8.5806,-8.5806,-8.5806,-8.5806,-8.5806,-8.4292,-8.4493,-8.4521,-8.4762,-8.4828,-8.4997,-8.5066,-8.5158,-8.5238,-8.5441,-8.5562,-8.5609,-8.5698,-8.5848,-8.5979,-8.5997,-8.6051,-8.6102,-8.6114,-8.5862,-8.5829,-8.5797,-8.5753,-8.6113,-8.6114,-8.637,-8.6373,-8.6374]}]]